Hourly Weather Kozyriv

Today, 1 November, Sunday

Time Temperature Precipitation Wind Pressure Humidity
00:00 +11°C° 0.7 mm 3 mps 743 mmHg 95%
01:00 +11°C° 0.7 mm 4 mps 743 mmHg 95%
02:00 +10°C° 0.7 mm 5 mps 744 mmHg 94%
03:00 +9°C° 0.3 mm 5 mps 744 mmHg 93%
04:00 +9°C° 0.3 mm 6 mps 744 mmHg 91%
05:00 +9°C° 0.3 mm 7 mps 744 mmHg 90%
06:00 +9°C° 0 mm 6 mps 745 mmHg 88%
07:00 +9°C° 0 mm 6 mps 745 mmHg 85%
08:00 +9°C° 0 mm 6 mps 746 mmHg 83%
09:00 +10°C° 0 mm 6 mps 746 mmHg 79%
10:00 +10°C° 0 mm 5 mps 746 mmHg 75%
11:00 +12°C° 0 mm 5 mps 747 mmHg 71%
12:00 +12°C° 0 mm 4 mps 747 mmHg 68%
13:00 +12°C° 0 mm 4 mps 747 mmHg 66%
14:00 +13°C° 0 mm 3 mps 747 mmHg 64%
15:00 +13°C° 0 mm 2 mps 747 mmHg 67%
16:00 +12°C° 0 mm 2 mps 747 mmHg 70%
17:00 +12°C° 0 mm 1 mps 747 mmHg 73%
18:00 +12°C° 0.1 mm 2 mps 746 mmHg 75%
19:00 +11°C° 0.1 mm 3 mps 746 mmHg 77%
20:00 +10°C° 0.1 mm 4 mps 746 mmHg 79%
21:00 +10°C° 2.1 mm 4 mps 745 mmHg 84%
22:00 +10°C° 2.1 mm 4 mps 745 mmHg 88%
23:00 +9°C° 2.1 mm 5 mps 745 mmHg 93%

Tomorrow, 2 November, Monday

Time Temperature Precipitation Wind Pressure Humidity
00:00 +10°C° 0.2 mm 4 mps 744 mmHg 89%
01:00 +10°C° 0.2 mm 4 mps 744 mmHg 85%
02:00 +10°C° 0.2 mm 4 mps 744 mmHg 80%
03:00 +10°C° 0.2 mm 4 mps 744 mmHg 82%
04:00 +10°C° 0.2 mm 4 mps 744 mmHg 84%
05:00 +10°C° 0.2 mm 3 mps 744 mmHg 86%
06:00 +10°C° 0.2 mm 3 mps 745 mmHg 87%
07:00 +10°C° 0.2 mm 4 mps 745 mmHg 87%
08:00 +8°C° 0.2 mm 4 mps 745 mmHg 87%
09:00 +10°C° 0.1 mm 4 mps 746 mmHg 84%
10:00 +9°C° 0.1 mm 5 mps 746 mmHg 82%
11:00 +10°C° 0.1 mm 5 mps 746 mmHg 79%
12:00 +10°C° 0.1 mm 5 mps 747 mmHg 77%
13:00 +10°C° 0.1 mm 5 mps 747 mmHg 76%
14:00 +12°C° 0.1 mm 5 mps 747 mmHg 74%
15:00 +10°C° 0.1 mm 5 mps 748 mmHg 78%
16:00 +11°C° 0.1 mm 4 mps 748 mmHg 82%
17:00 +10°C° 0.1 mm 4 mps 748 mmHg 86%
18:00 +10°C° 0.1 mm 4 mps 749 mmHg 86%
19:00 +10°C° 0.1 mm 4 mps 749 mmHg 86%
20:00 +10°C° 0.1 mm 3 mps 749 mmHg 86%
21:00 +10°C° 0.1 mm 3 mps 750 mmHg 87%
22:00 +10°C° 0.1 mm 3 mps 750 mmHg 87%
23:00 +9°C° 0.1 mm 3 mps 750 mmHg 88%

Day after tomorrow, 3 November, Tuesday

Time Temperature Precipitation Wind Pressure Humidity
00:00 +9°C° 0.2 mm 3 mps 750 mmHg 89%
01:00 +9°C° 0.2 mm 2 mps 750 mmHg 89%
02:00 +9°C° 0.2 mm 2 mps 750 mmHg 90%
03:00 +9°C° 0.2 mm 2 mps 750 mmHg 90%
04:00 +9°C° 0.2 mm 2 mps 750 mmHg 89%
05:00 +9°C° 0.2 mm 2 mps 750 mmHg 89%
06:00 +10°C° 0 mm 1 mps 751 mmHg 87%
07:00 +10°C° 0 mm 1 mps 751 mmHg 86%
08:00 +10°C° 0 mm 1 mps 751 mmHg 85%
09:00 +11°C° 0 mm 1 mps 751 mmHg 81%
10:00 +11°C° 0 mm 1 mps 751 mmHg 78%
11:00 +12°C° 0 mm 1 mps 752 mmHg 74%
12:00 +12°C° 0.1 mm 1 mps 752 mmHg 74%
13:00 +12°C° 0.1 mm 1 mps 752 mmHg 73%
14:00 +12°C° 0.1 mm 1 mps 752 mmHg 73%
15:00 +12°C° 0.1 mm 1 mps 752 mmHg 76%
16:00 +11°C° 0.1 mm 1 mps 752 mmHg 78%
17:00 +11°C° 0.1 mm 1 mps 752 mmHg 81%
18:00 +11°C° 0 mm 1 mps 753 mmHg 82%
19:00 +10°C° 0 mm 1 mps 753 mmHg 83%
20:00 +10°C° 0 mm 1 mps 753 mmHg 84%
21:00 +9°C° 0 mm 1 mps 753 mmHg 85%
22:00 +9°C° 0 mm 1 mps 753 mmHg 86%
23:00 +9°C° 0 mm 1 mps 754 mmHg 87%

4 November, Wednesday

Time Temperature Precipitation Wind Pressure Humidity
00:00 +8°C° 0 mm 1 mps 754 mmHg 88%
01:00 +8°C° 0 mm 1 mps 754 mmHg 89%
02:00 +8°C° 0 mm 1 mps 754 mmHg 90%
03:00 +8°C° 0 mm 1 mps 754 mmHg 91%
04:00 +8°C° 0 mm 1 mps 754 mmHg 92%
05:00 +6°C° 0 mm 2 mps 755 mmHg 93%
06:00 +7°C° 0 mm 2 mps 755 mmHg 92%
07:00 +7°C° 0 mm 2 mps 755 mmHg 91%
08:00 +7°C° 0 mm 2 mps 756 mmHg 90%
09:00 +9°C° 0 mm 2 mps 756 mmHg 83%
10:00 +10°C° 0 mm 2 mps 756 mmHg 76%
11:00 +13°C° 0 mm 2 mps 756 mmHg 69%
12:00 +13°C° 0 mm 2 mps 756 mmHg 66%
13:00 +13°C° 0 mm 2 mps 756 mmHg 64%
14:00 +14°C° 0 mm 2 mps 756 mmHg 61%
15:00 +13°C° 0 mm 2 mps 757 mmHg 66%
16:00 +12°C° 0 mm 2 mps 757 mmHg 71%
17:00 +10°C° 0 mm 2 mps 757 mmHg 76%
18:00 +9°C° 0 mm 2 mps 757 mmHg 78%
19:00 +9°C° 0 mm 2 mps 758 mmHg 80%
20:00 +9°C° 0 mm 2 mps 758 mmHg 82%
21:00 +8°C° 0 mm 2 mps 758 mmHg 84%
22:00 +8°C° 0 mm 2 mps 758 mmHg 85%
23:00 +8°C° 0 mm 2 mps 758 mmHg 86%

5 November, Thursday

Time Temperature Precipitation Wind Pressure Humidity
00:00 +8°C° 0 mm 2 mps 759 mmHg 87%
01:00 +7°C° 0 mm 2 mps 759 mmHg 88%
02:00 +7°C° 0 mm 2 mps 759 mmHg 89%
03:00 +7°C° 0 mm 2 mps 759 mmHg 90%
04:00 +7°C° 0 mm 2 mps 759 mmHg 90%
05:00 +7°C° 0 mm 3 mps 759 mmHg 91%
06:00 +7°C° 0 mm 2 mps 759 mmHg 88%
07:00 +7°C° 0 mm 2 mps 759 mmHg 86%
08:00 +8°C° 0 mm 2 mps 759 mmHg 83%
09:00 +9°C° 0 mm 2 mps 759 mmHg 77%
10:00 +12°C° 0 mm 2 mps 759 mmHg 71%
11:00 +13°C° 0 mm 2 mps 759 mmHg 64%
12:00 +13°C° 0 mm 2 mps 759 mmHg 62%
13:00 +14°C° 0 mm 2 mps 758 mmHg 59%
14:00 +14°C° 0 mm 2 mps 758 mmHg 57%
15:00 +13°C° 0 mm 2 mps 758 mmHg 62%
16:00 +12°C° 0 mm 1 mps 758 mmHg 66%
17:00 +11°C° 0 mm 1 mps 757 mmHg 71%
18:00 +10°C° 0 mm 1 mps 757 mmHg 73%
19:00 +10°C° 0 mm 1 mps 757 mmHg 75%
20:00 +10°C° 0 mm 1 mps 757 mmHg 77%
21:00 +9°C° 0 mm 1 mps 757 mmHg 78%
22:00 +9°C° 0 mm 1 mps 757 mmHg 80%
23:00 +9°C° 0 mm 1 mps 757 mmHg 81%

6 November, Friday

Time Temperature Precipitation Wind Pressure Humidity
00:00 +9°C° 0 mm 1 mps 757 mmHg 82%
01:00 +8°C° 0 mm 1 mps 757 mmHg 82%
02:00 +8°C° 0 mm 1 mps 756 mmHg 83%
03:00 +8°C° 0 mm 1 mps 756 mmHg 84%
04:00 +8°C° 0 mm 1 mps 756 mmHg 85%
05:00 +8°C° 0 mm 1 mps 756 mmHg 85%
06:00 +8°C° 0 mm 1 mps 756 mmHg 85%
07:00 +8°C° 0 mm 1 mps 757 mmHg 84%
08:00 +8°C° 0 mm 2 mps 757 mmHg 84%
09:00 +8°C° 0.1 mm 2 mps 757 mmHg 84%
10:00 +8°C° 0.1 mm 2 mps 757 mmHg 84%
11:00 +8°C° 0.1 mm 2 mps 757 mmHg 84%
12:00 +8°C° 0.1 mm 2 mps 757 mmHg 85%
13:00 +8°C° 0.1 mm 3 mps 757 mmHg 86%
14:00 +8°C° 0.1 mm 3 mps 757 mmHg 86%
15:00 +8°C° 0 mm 3 mps 757 mmHg 86%
16:00 +8°C° 0 mm 3 mps 758 mmHg 86%
17:00 +8°C° 0 mm 3 mps 758 mmHg 86%
18:00 +8°C° 0 mm 3 mps 758 mmHg 86%
19:00 +7°C° 0 mm 4 mps 759 mmHg 86%
20:00 +7°C° 0 mm 4 mps 759 mmHg 85%
21:00 +8°C° 0 mm 3 mps 759 mmHg 87%
22:00 +7°C° 0 mm 3 mps 759 mmHg 88%
23:00 +7°C° 0 mm 3 mps 760 mmHg 90%
Show more